Cosmos 2084 Rocket - Orbit

View from above orbital plane
View from above orbital plane
View from above satellite
View from above satellite

Ground track
Ground track

The orbit data is extracted from the following two-line orbital elements,

1 20666U 90055D   13139.14295418  .00000849  00000-0  10821-3 0  8636
2 20666 062.7895 072.3111 0046006 205.8781 154.0011 14.88573402239076
Epoch (UTC): 19 May 2013 03:25:51
Eccentricity: 0.0046006
inclination: 62.7895°
perigee height: 570 km
apogee height: 634 km
right ascension of ascending node: 72.3111°
argument of perigee: 205.8781°
revolutions per day: 14.88573402
mean anomaly at epoch: 154.0011°
orbit number at epoch: 23907

The dashed part of the orbit path shows where the satellite is in the earth's shadow,  

Developed and maintained by Chris Peat, Heavens-Above GmbH. Please read the updated FAQ before sending e-mail. Imprint. DLR